When you browse on this site, cookies collect data to enhance your experience and personalize the content and advertising you see.
Visit our Privacy Policy to learn more. By continuing to use the site, you agree to this use of cookies and data.
  • In Czech Republic
  • List of Countries
  • For 7 days
  • Water Temperature
  • Satellite Maps
  • Weather Map
  • Weather Widgets
  • user-avatar
    Login

    Hourly Weather Innsbruck

    Today, 18 June, Tuesday

    Time Temperature Precipitation Wind Pressure Humidity
    00:00 +8°C° 0 mm 1 mps 598 mmHg 89%
    01:00 +7°C° 0 mm 1 mps 598 mmHg 89%
    02:00 +7°C° 0 mm 1 mps 597 mmHg 89%
    03:00 +7°C° 0 mm 1 mps 597 mmHg 89%
    04:00 +6°C° 0 mm 1 mps 597 mmHg 89%
    05:00 +8°C° 0 mm 1 mps 598 mmHg 85%
    06:00 +9°C° 0 mm 0 mps 599 mmHg 81%
    07:00 +11°C° 0 mm 0 mps 600 mmHg 77%
    08:00 +13°C° 0.2 mm 0 mps 600 mmHg 69%
    09:00 +16°C° 0.2 mm 1 mps 601 mmHg 61%
    10:00 +19°C° 0.2 mm 1 mps 602 mmHg 53%
    11:00 +19°C° 0.8 mm 1 mps 602 mmHg 51%
    12:00 +20°C° 0.8 mm 1 mps 602 mmHg 48%
    13:00 +21°C° 0.8 mm 1 mps 602 mmHg 46%
    14:00 +19°C° 0.8 mm 1 mps 601 mmHg 51%
    15:00 +18°C° 0.8 mm 1 mps 600 mmHg 57%
    16:00 +16°C° 0.8 mm 1 mps 600 mmHg 62%
    17:00 +15°C° 1.5 mm 1 mps 599 mmHg 71%
    18:00 +13°C° 1.5 mm 1 mps 598 mmHg 80%
    19:00 +10°C° 1.5 mm 2 mps 598 mmHg 89%
    20:00 +11°C° 0.5 mm 1 mps 598 mmHg 89%
    21:00 +10°C° 0.5 mm 1 mps 597 mmHg 90%
    22:00 +9°C° 0.5 mm 1 mps 597 mmHg 90%
    23:00 +9°C° 0 mm 1 mps 597 mmHg 89%

    Tomorrow, 19 June, Wednesday

    Time Temperature Precipitation Wind Pressure Humidity
    00:00 +9°C° 0 mm 1 mps 597 mmHg 88%
    01:00 +8°C° 0 mm 1 mps 596 mmHg 87%
    02:00 +8°C° 0 mm 1 mps 596 mmHg 87%
    03:00 +7°C° 0 mm 1 mps 596 mmHg 88%
    04:00 +7°C° 0 mm 1 mps 595 mmHg 88%
    05:00 +8°C° 0 mm 0 mps 596 mmHg 84%
    06:00 +9°C° 0 mm 0 mps 597 mmHg 81%
    07:00 +11°C° 0 mm 0 mps 598 mmHg 77%
    08:00 +13°C° 0.7 mm 0 mps 598 mmHg 70%
    09:00 +15°C° 0.7 mm 0 mps 599 mmHg 62%
    10:00 +18°C° 0.7 mm 1 mps 600 mmHg 55%
    11:00 +19°C° 1.3 mm 1 mps 600 mmHg 54%
    12:00 +19°C° 1.3 mm 1 mps 600 mmHg 54%
    13:00 +19°C° 1.3 mm 1 mps 599 mmHg 53%
    14:00 +16°C° 2.1 mm 1 mps 599 mmHg 60%
    15:00 +15°C° 2.1 mm 2 mps 598 mmHg 68%
    16:00 +14°C° 2.1 mm 2 mps 597 mmHg 75%
    17:00 +13°C° 2.1 mm 2 mps 597 mmHg 80%
    18:00 +11°C° 2.1 mm 1 mps 597 mmHg 85%
    19:00 +10°C° 2.1 mm 1 mps 596 mmHg 90%
    20:00 +9°C° 0 mm 1 mps 596 mmHg 88%
    21:00 +8°C° 0 mm 1 mps 596 mmHg 86%
    22:00 +8°C° 0 mm 1 mps 596 mmHg 85%
    23:00 +7°C° 0 mm 1 mps 596 mmHg 84%

    Day after tomorrow, 20 June, Thursday

    Time Temperature Precipitation Wind Pressure Humidity
    00:00 +7°C° 0 mm 1 mps 596 mmHg 83%
    01:00 +7°C° 0 mm 1 mps 595 mmHg 82%
    02:00 +7°C° 0 mm 1 mps 595 mmHg 81%
    03:00 +6°C° 0 mm 1 mps 595 mmHg 81%
    04:00 +5°C° 0 mm 0 mps 595 mmHg 80%
    05:00 +7°C° 0 mm 0 mps 596 mmHg 75%
    06:00 +10°C° 0 mm 0 mps 597 mmHg 70%
    07:00 +12°C° 0 mm 0 mps 598 mmHg 65%
    08:00 +15°C° 0 mm 1 mps 598 mmHg 58%
    09:00 +16°C° 0 mm 1 mps 599 mmHg 51%
    10:00 +19°C° 0 mm 1 mps 600 mmHg 44%
    11:00 +18°C° 0 mm 2 mps 600 mmHg 43%
    12:00 +19°C° 0 mm 2 mps 600 mmHg 41%
    13:00 +20°C° 0 mm 2 mps 600 mmHg 39%
    14:00 +18°C° 0.6 mm 2 mps 599 mmHg 48%
    15:00 +17°C° 0.6 mm 2 mps 598 mmHg 57%
    16:00 +16°C° 0.6 mm 2 mps 598 mmHg 66%
    17:00 +14°C° 1.4 mm 2 mps 598 mmHg 75%
    18:00 +13°C° 1.4 mm 2 mps 597 mmHg 83%
    19:00 +10°C° 1.4 mm 2 mps 597 mmHg 91%
    20:00 +11°C° 0.6 mm 1 mps 597 mmHg 93%
    21:00 +10°C° 0.6 mm 1 mps 597 mmHg 95%
    22:00 +9°C° 0.6 mm 1 mps 597 mmHg 97%
    23:00 +8°C° 0 mm 1 mps 597 mmHg 97%

    21 June, Friday

    Time Temperature Precipitation Wind Pressure Humidity
    00:00 +7°C° 0 mm 1 mps 596 mmHg 97%
    01:00 +5°C° 0 mm 0 mps 596 mmHg 96%
    02:00 +5°C° 0 mm 0 mps 596 mmHg 95%
    03:00 +5°C° 0 mm 0 mps 596 mmHg 94%
    04:00 +5°C° 0 mm 0 mps 595 mmHg 94%
    05:00 +6°C° 0 mm 0 mps 596 mmHg 90%
    06:00 +8°C° 0 mm 0 mps 597 mmHg 86%
    07:00 +10°C° 0 mm 0 mps 598 mmHg 83%
    08:00 +12°C° 0.4 mm 1 mps 599 mmHg 79%
    09:00 +13°C° 0.4 mm 1 mps 599 mmHg 75%
    10:00 +14°C° 0.4 mm 1 mps 600 mmHg 71%
    11:00 +15°C° 0.9 mm 1 mps 600 mmHg 70%
    12:00 +15°C° 0.9 mm 1 mps 600 mmHg 69%
    13:00 +15°C° 0.9 mm 1 mps 599 mmHg 68%
    14:00 +14°C° 1.4 mm 1 mps 599 mmHg 77%
    15:00 +13°C° 1.4 mm 1 mps 598 mmHg 85%
    16:00 +11°C° 1.4 mm 1 mps 597 mmHg 94%
    17:00 +11°C° 4 mm 1 mps 597 mmHg 95%
    18:00 +10°C° 4 mm 1 mps 597 mmHg 96%
    19:00 +9°C° 4 mm 1 mps 597 mmHg 98%
    20:00 +9°C° 0.9 mm 1 mps 597 mmHg 97%
    21:00 +9°C° 0.9 mm 1 mps 597 mmHg 96%
    22:00 +8°C° 0.9 mm 1 mps 597 mmHg 95%
    23:00 +7°C° 0.3 mm 0 mps 597 mmHg 95%

    22 June, Saturday

    Time Temperature Precipitation Wind Pressure Humidity
    00:00 +7°C° 0.3 mm 0 mps 597 mmHg 94%
    01:00 +7°C° 0.3 mm 0 mps 597 mmHg 94%
    02:00 +7°C° 0.3 mm 0 mps 597 mmHg 94%
    03:00 +7°C° 0.3 mm 0 mps 597 mmHg 95%
    04:00 +7°C° 0.3 mm 0 mps 597 mmHg 95%
    05:00 +7°C° 1.9 mm 0 mps 597 mmHg 96%
    06:00 +8°C° 1.9 mm 1 mps 597 mmHg 96%
    07:00 +8°C° 1.9 mm 1 mps 597 mmHg 97%
    08:00 +9°C° 0.7 mm 1 mps 598 mmHg 90%
    09:00 +11°C° 0.7 mm 1 mps 599 mmHg 83%
    10:00 +13°C° 0.7 mm 1 mps 599 mmHg 77%
    11:00 +14°C° 0.2 mm 1 mps 600 mmHg 71%
    12:00 +15°C° 0.2 mm 1 mps 600 mmHg 65%
    13:00 +16°C° 0.2 mm 1 mps 601 mmHg 59%
    14:00 +16°C° 0.4 mm 1 mps 600 mmHg 62%
    15:00 +16°C° 0.4 mm 2 mps 600 mmHg 64%
    16:00 +15°C° 0.4 mm 2 mps 600 mmHg 67%
    17:00 +14°C° 0.8 mm 1 mps 599 mmHg 74%
    18:00 +13°C° 0.8 mm 1 mps 599 mmHg 81%
    19:00 +12°C° 0.8 mm 1 mps 599 mmHg 88%
    20:00 +11°C° 0.5 mm 1 mps 598 mmHg 89%
    21:00 +9°C° 0.5 mm 0 mps 598 mmHg 90%
    22:00 +8°C° 0.5 mm 0 mps 598 mmHg 91%
    23:00 +9°C° 0.1 mm 1 mps 598 mmHg 91%

    23 June, Sunday

    Time Temperature Precipitation Wind Pressure Humidity
    00:00 +9°C° 0.1 mm 1 mps 598 mmHg 92%
    01:00 +9°C° 0.1 mm 1 mps 598 mmHg 92%
    02:00 +9°C° 0 mm 1 mps 598 mmHg 92%
    03:00 +8°C° 0 mm 1 mps 598 mmHg 91%
    04:00 +8°C° 0 mm 1 mps 598 mmHg 91%
    05:00 +9°C° 0 mm 1 mps 599 mmHg 87%
    06:00 +10°C° 0 mm 1 mps 599 mmHg 83%
    07:00 +11°C° 0 mm 1 mps 600 mmHg 79%
    08:00 +13°C° 0 mm 1 mps 601 mmHg 69%
    09:00 +15°C° 0 mm 1 mps 602 mmHg 59%
    10:00 +18°C° 0 mm 1 mps 603 mmHg 50%
    11:00 +18°C° 0.1 mm 1 mps 603 mmHg 48%
    12:00 +19°C° 0.1 mm 1 mps 603 mmHg 46%
    13:00 +18°C° 0.1 mm 2 mps 603 mmHg 45%
    14:00 +18°C° 0.2 mm 2 mps 603 mmHg 48%
    15:00 +18°C° 0.2 mm 2 mps 603 mmHg 51%
    16:00 +17°C° 0.2 mm 2 mps 603 mmHg 54%
    17:00 +16°C° 0.1 mm 2 mps 602 mmHg 61%
    18:00 +15°C° 0.1 mm 1 mps 602 mmHg 69%
    19:00 +14°C° 0.1 mm 1 mps 602 mmHg 76%
    20:00 +12°C° 0 mm 1 mps 602 mmHg 80%
    21:00 +10°C° 0 mm 1 mps 601 mmHg 85%
    22:00 +8°C° 0 mm 0 mps 601 mmHg 90%
    23:00 +9°C° 0 mm 1 mps 601 mmHg 88%
    Show more